TimeCST,TemperatureF,Dew PointF,Humidity,Sea Level PressureIn,VisibilityMPH,Wind Direction,Wind SpeedMPH,Gust SpeedMPH,PrecipitationIn,Events,Conditions,WindDirDegrees,DateUTC
12:53 AM,46.0,42.1,86,30.26,7.0,East,11.5,19.6,0.03,Rain,Light Rain,90,2013-01-10 06:53:00
1:25 AM,44.6,42.8,93,30.26,9.0,East,10.4,-,0.02,Rain,Light Rain,100,2013-01-10 07:25:00
1:53 AM,44.1,42.1,93,30.26,4.0,ESE,10.4,-,0.02,Rain,Light Rain,110,2013-01-10 07:53:00
2:05 AM,44.6,42.8,93,30.25,5.0,ESE,12.7,-,0.00,Rain,Light Rain,110,2013-01-10 08:05:00
2:53 AM,43.0,42.1,97,30.24,2.5,ESE,10.4,-,0.01,,Overcast,110,2013-01-10 08:53:00
3:05 AM,44.6,42.8,93,30.23,3.0,ESE,12.7,18.4,N/A,Rain,Light Rain,110,2013-01-10 09:05:00
3:18 AM,42.8,42.8,100,30.22,2.5,East,10.4,-,0.00,Rain,Light Rain,100,2013-01-10 09:18:00
3:33 AM,42.8,42.8,100,30.20,3.0,East,8.1,-,0.00,,Overcast,90,2013-01-10 09:33:00
3:53 AM,43.0,42.1,97,30.19,4.0,East,10.4,-,0.01,Rain,Light Rain,90,2013-01-10 09:53:00
4:18 AM,42.8,42.8,100,30.17,2.0,ESE,12.7,-,0.00,Rain,Light Rain,110,2013-01-10 10:18:00
4:37 AM,42.8,42.8,100,30.16,4.0,East,9.2,-,0.00,Rain,Light Rain,100,2013-01-10 10:37:00
4:53 AM,43.0,42.1,97,30.17,4.0,ESE,6.9,-,0.00,,Overcast,110,2013-01-10 10:53:00
5:28 AM,42.8,42.8,100,30.16,2.0,ESE,8.1,-,N/A,,Overcast,110,2013-01-10 11:28:00
5:35 AM,42.8,42.8,100,30.15,1.8,East,9.2,-,N/A,,Overcast,100,2013-01-10 11:35:00
5:53 AM,42.1,42.1,100,30.15,1.5,ESE,9.2,-,N/A,,Overcast,110,2013-01-10 11:53:00
6:26 AM,42.8,42.8,100,30.13,1.2,ESE,11.5,-,N/A,,Overcast,120,2013-01-10 12:26:00
6:39 AM,42.8,42.8,100,30.14,0.5,SE,9.2,-,N/A,Fog,Fog,130,2013-01-10 12:39:00
6:53 AM,42.1,42.1,100,30.14,0.5,ESE,11.5,-,N/A,Fog,Fog,120,2013-01-10 12:53:00
7:42 AM,42.8,42.8,100,30.12,0.8,ESE,9.2,-,N/A,,Mist,120,2013-01-10 13:42:00
7:49 AM,42.8,42.8,100,30.11,0.5,ESE,9.2,-,0.01,Fog,Fog,110,2013-01-10 13:49:00
7:53 AM,43.0,42.1,97,30.12,0.5,ESE,8.1,-,0.01,Fog,Fog,120,2013-01-10 13:53:00
8:04 AM,42.8,42.8,100,30.11,0.8,ESE,6.9,-,N/A,,Mist,120,2013-01-10 14:04:00
8:22 AM,42.8,42.8,100,30.10,1.2,ESE,8.1,-,N/A,,Overcast,110,2013-01-10 14:22:00
8:46 AM,42.8,42.8,100,30.10,0.8,SE,5.8,-,N/A,,Overcast,130,2013-01-10 14:46:00
8:53 AM,43.0,43.0,100,30.11,0.8,ESE,6.9,-,N/A,,Overcast,120,2013-01-10 14:53:00
9:15 AM,42.8,42.8,100,30.12,1.2,Variable,3.5,-,0.00,Rain,Light Rain,0,2013-01-10 15:15:00
9:29 AM,42.8,42.8,100,30.10,0.8,East,9.2,-,0.01,Rain,Light Rain,90,2013-01-10 15:29:00
9:53 AM,43.0,43.0,100,30.09,0.8,East,6.9,-,0.02,Rain,Light Rain,100,2013-01-10 15:53:00
10:01 AM,44.6,44.6,100,30.08,0.5,East,5.8,-,0.00,Fog-Rain,Light Rain,100,2013-01-10 16:01:00
10:11 AM,44.6,44.6,100,30.07,0.8,ESE,5.8,-,0.00,,Mist,110,2013-01-10 16:11:00
10:22 AM,44.6,44.6,100,30.07,0.5,ESE,6.9,-,0.01,Fog-Rain,Light Rain,120,2013-01-10 16:22:00
10:26 AM,44.6,44.6,100,30.07,1.0,ESE,6.9,-,0.01,Rain,Light Rain,120,2013-01-10 16:26:00
10:37 AM,44.6,44.6,100,30.07,2.5,ESE,8.1,-,0.01,,Overcast,120,2013-01-10 16:37:00
10:44 AM,44.6,44.6,100,30.06,4.0,ESE,6.9,-,0.01,,Overcast,120,2013-01-10 16:44:00
10:53 AM,44.1,44.1,100,30.06,2.5,ESE,6.9,-,0.01,,Overcast,120,2013-01-10 16:53:00
11:05 AM,44.6,44.6,100,30.06,1.5,SE,4.6,-,N/A,,Overcast,130,2013-01-10 17:05:00
11:22 AM,44.6,44.6,100,30.04,0.8,ESE,3.5,-,N/A,,Overcast,110,2013-01-10 17:22:00
11:29 AM,44.6,44.6,100,30.02,0.5,East,5.8,-,N/A,Fog,Fog,100,2013-01-10 17:29:00
11:38 AM,44.6,44.6,100,30.01,0.2,East,6.9,-,N/A,Fog,Fog,100,2013-01-10 17:38:00
11:53 AM,45.0,45.0,100,30.00,0.2,ESE,9.2,-,N/A,Fog,Fog,110,2013-01-10 17:53:00
12:40 PM,46.4,46.4,100,29.96,0.8,SE,9.2,-,N/A,,Mist,130,2013-01-10 18:40:00
12:51 PM,46.4,46.4,100,29.94,0.2,SE,9.2,-,N/A,Fog,Fog,130,2013-01-10 18:51:00
12:53 PM,46.0,46.0,100,29.94,0.2,SE,8.1,-,N/A,Fog,Fog,130,2013-01-10 18:53:00
1:53 PM,46.9,46.9,100,29.90,0.2,SE,8.1,-,N/A,Fog,Fog,130,2013-01-10 19:53:00
2:53 PM,48.0,46.9,96,29.87,0.2,ESE,5.8,-,0.00,Fog-Rain,Light Rain,110,2013-01-10 20:53:00
3:53 PM,48.0,48.0,100,29.87,0.2,ESE,4.6,-,0.01,Fog-Rain,Light Rain,110,2013-01-10 21:53:00
4:53 PM,48.9,48.0,97,29.86,0.2,Calm,Calm,-,0.01,Fog,Fog,0,2013-01-10 22:53:00
5:14 PM,48.2,48.2,100,29.85,0.5,East,3.5,-,0.01,Fog,Fog,100,2013-01-10 23:14:00
5:22 PM,48.2,48.2,100,29.85,0.8,Calm,Calm,-,0.01,Rain,Light Rain,0,2013-01-10 23:22:00
5:35 PM,48.2,48.2,100,29.84,0.5,ESE,3.5,-,0.01,Fog-Rain,Light Rain,110,2013-01-10 23:35:00
5:53 PM,48.0,48.0,100,29.86,0.8,SW,4.6,-,0.06,Rain,Rain,230,2013-01-10 23:53:00
6:00 PM,48.2,48.2,100,29.86,1.5,WSW,3.5,-,0.00,Rain,Light Rain,240,2013-01-11 00:00:00
6:22 PM,48.2,48.2,100,29.86,2.5,Calm,Calm,-,0.02,,Overcast,0,2013-01-11 00:22:00
6:39 PM,48.2,46.4,93,29.86,4.0,NNW,4.6,-,0.02,,Overcast,340,2013-01-11 00:39:00
6:47 PM,48.2,48.2,100,29.86,2.0,Calm,Calm,-,0.02,,Overcast,0,2013-01-11 00:47:00
6:53 PM,48.0,48.0,100,29.87,1.0,Calm,Calm,-,0.02,,Overcast,0,2013-01-11 00:53:00
7:00 PM,48.2,48.2,100,29.86,0.8,NNW,3.5,-,N/A,,Overcast,340,2013-01-11 01:00:00
7:27 PM,46.4,46.4,100,29.86,0.2,Calm,Calm,-,N/A,Fog,Fog,0,2013-01-11 01:27:00
7:48 PM,46.4,46.4,100,29.86,0.5,NNW,5.8,-,N/A,Fog,Fog,340,2013-01-11 01:48:00
7:53 PM,46.0,45.0,96,29.87,0.5,North,6.9,-,N/A,Fog,Fog,350,2013-01-11 01:53:00
8:03 PM,48.2,48.2,100,29.86,1.0,North,3.5,-,N/A,,Overcast,350,2013-01-11 02:03:00
8:16 PM,48.2,48.2,100,29.87,2.0,West,3.5,-,0.06,Rain,Light Rain,260,2013-01-11 02:16:00
8:20 PM,48.2,48.2,100,29.87,3.0,WNW,3.5,-,0.06,Rain,Light Rain,290,2013-01-11 02:20:00
8:36 PM,46.4,46.4,100,29.87,1.5,Calm,Calm,-,0.06,,Mostly Cloudy,0,2013-01-11 02:36:00
8:48 PM,48.2,46.4,93,29.87,3.0,Calm,Calm,-,0.06,,Scattered Clouds,0,2013-01-11 02:48:00
8:53 PM,48.0,46.9,96,29.88,7.0,SSW,3.5,-,0.06,,Partly Cloudy,210,2013-01-11 02:53:00
9:53 PM,50.0,46.0,86,29.88,10.0,SSW,5.8,-,N/A,,Clear,210,2013-01-11 03:53:00
10:34 PM,50.0,44.6,82,29.88,10.0,SW,5.8,-,N/A,,Mostly Cloudy,230,2013-01-11 04:34:00
10:50 PM,48.2,44.6,87,29.87,10.0,SW,5.8,-,N/A,,Scattered Clouds,230,2013-01-11 04:50:00
10:53 PM,48.9,44.1,83,29.88,10.0,WSW,5.8,-,N/A,,Partly Cloudy,240,2013-01-11 04:53:00
11:27 PM,48.2,44.6,87,29.89,10.0,SW,8.1,-,N/A,,Mostly Cloudy,230,2013-01-11 05:27:00
11:48 PM,50.0,44.6,82,29.89,10.0,SSW,4.6,-,N/A,,Overcast,210,2013-01-11 05:48:00
11:53 PM,50.0,44.1,80,29.89,10.0,SSW,5.8,-,N/A,,Overcast,210,2013-01-11 05:53:00